Location: Niedergestelen
(46.3129°N, 7.7822°E)
Time: 15:51:46
(UTC+00:00)

Helios 1A Rocket - Pass Details

Date: 01 December 2020
Orbit: 564 x 585 km, 98.3° (Epoch: 28 January)

Event Time Altitude Azimuth Distance (km) Brightness Sun altitude
Exits shadow 17:35:10 36° 39° (NE) 904 3.5 -18.5°
Drops below altitude 10° 17:38:09 10° 360° (N) 1,870 5.4 -19.0°
Sets 17:40:22 0° 353° (N) 2,773 6.4 -19.4°
